Weather History for Glenwood, MN

Change the Weather History Date:

Wednesday, November 21, 2012

  Actual Average Record
Temperature  
Mean Temperature 46 °F -  
Max Temperature 59 °F 36 °F 60 °F (1990)
Min Temperature 33 °F 20 °F -3 °F (1964)
Degree Days  
Heating Degree Days 19    
Moisture  
Dew Point 35 °F    
Average Humidity 69    
Maximum Humidity 93    
Minimum Humidity 42    
Precipitation  
Precipitation 0.00 in - - ()
Sea Level Pressure  
Sea Level Pressure 29.80 in    
Wind  
Wind Speed 8 mph (South)    
Max Wind Speed 21 mph    
Max Gust Speed 26 mph    
Visibility 10 miles    
Events      
Averages and records for this station are not official NWS values.
T = Trace of Precipitation, MM = Missing Value Source: NWS Daily Summary

Daily Weather History Graph

Daily Weather History Graph

Search for Another Location

Airport:

Trip Planner

Search our weather history database for the weather conditions in past years. The results will help you decide how hot, cold, wet, or windy it might be!

Date:

Astronomy

Nov. 21, 2012 Rise Set
Actual Time 7:29 AM CST 4:44 PM CST
Civil Twilight 6:56 AM CST 5:17 PM CST
Nautical Twilight 6:20 AM CST 5:53 PM CST
Astronomical Twilight 5:44 AM CST 6:29 PM CST
Moon 1:18 PM CST (11/21) 12:30 AM CST (11/21)
Length of Visible Light 10h 20m
Length of Day
9h 15m
First Quarter, 62% of the Moon is Illuminated
Nov 21
First Quarter
Nov 28
Full
Dec 6
Last Quarter
Dec 13
New
Dec 19
First Quarter

Hourly Weather History & Observations

Time (CST) Temp. Windchill Dew Point Humidity Pressure Visibility Wind Dir Wind Speed Gust Speed Precip Events Conditions
12:13 AM 41.0 °F 34.7 °F 30.2 °F 65% 29.94 in 10.0 mi South 10.4 mph - N/A   Clear
12:33 AM 39.2 °F 34.2 °F 30.2 °F 70% 29.94 in 10.0 mi South 6.9 mph - N/A   Clear
12:54 AM 39.2 °F 34.2 °F 30.2 °F 70% 29.92 in 10.0 mi SSE 6.9 mph - N/A   Clear
1:13 AM 39.2 °F 33.6 °F 30.2 °F 70% 29.92 in 10.0 mi South 8.1 mph - N/A   Clear
1:34 AM 37.4 °F 30.8 °F 30.2 °F 75% 29.92 in 10.0 mi South 9.2 mph - N/A   Clear
1:53 AM 35.6 °F 28.0 °F 30.2 °F 81% 29.91 in 10.0 mi South 10.4 mph - N/A   Clear
2:14 AM 35.6 °F 30.7 °F 30.2 °F 81% 29.91 in 10.0 mi South 5.8 mph - N/A   Clear
2:33 AM 33.8 °F 27.0 °F 30.2 °F 87% 29.91 in 10.0 mi South 8.1 mph - N/A   Clear
2:53 AM 35.6 °F 29.9 °F 30.2 °F 81% 29.91 in 10.0 mi South 6.9 mph - N/A   Clear
3:13 AM 35.6 °F 28.6 °F 30.2 °F 81% 29.91 in 10.0 mi SSW 9.2 mph - N/A   Clear
3:33 AM 33.8 °F 29.6 °F 30.2 °F 87% 29.91 in 10.0 mi SW 4.6 mph - N/A   Clear
3:54 AM 35.6 °F 31.7 °F 30.2 °F 81% 29.90 in 10.0 mi SSW 4.6 mph - N/A   Clear
4:13 AM 35.6 °F 31.7 °F 30.2 °F 81% 29.90 in 10.0 mi SSW 4.6 mph - N/A   Clear
4:33 AM 35.6 °F 29.2 °F 30.2 °F 81% 29.90 in 10.0 mi SSW 8.1 mph - N/A   Clear
4:53 AM 35.6 °F 29.9 °F 30.2 °F 81% 29.90 in 10.0 mi SSW 6.9 mph - N/A   Clear
5:13 AM 35.6 °F 30.7 °F 30.2 °F 81% 29.90 in 10.0 mi South 5.8 mph - N/A   Clear
5:33 AM 33.8 °F 27.7 °F 30.2 °F 87% 29.90 in 10.0 mi SSW 6.9 mph - N/A   Clear
5:53 AM 33.8 °F 27.7 °F 30.2 °F 87% 29.91 in 10.0 mi SSW 6.9 mph - N/A   Scattered Clouds
6:13 AM 33.8 °F 27.7 °F 30.2 °F 87% 29.91 in 10.0 mi SSW 6.9 mph - N/A   Clear
6:33 AM 35.6 °F 31.7 °F 30.2 °F 81% 29.90 in 10.0 mi SW 4.6 mph - N/A   Clear
6:54 AM 35.6 °F 32.8 °F 32.0 °F 87% 29.90 in 10.0 mi SSW 3.5 mph - N/A   Clear
7:13 AM 33.8 °F 28.6 °F 30.2 °F 87% 29.90 in 10.0 mi South 5.8 mph - N/A   Clear
7:33 AM 33.8 °F 28.6 °F 32.0 °F 93% 29.90 in 10.0 mi South 5.8 mph - N/A   Clear
7:54 AM 35.6 °F 31.7 °F 32.0 °F 87% 29.91 in 10.0 mi South 4.6 mph - N/A   Clear
8:13 AM 35.6 °F - 32.0 °F 87% 29.91 in 10.0 mi Calm Calm - N/A   Clear
8:33 AM 37.4 °F - 33.8 °F 87% 29.90 in 10.0 mi Calm Calm - N/A   Clear
8:54 AM 37.4 °F 33.8 °F 33.8 °F 87% 29.91 in 10.0 mi SSW 4.6 mph - N/A   Clear
9:13 AM 37.4 °F 34.9 °F 35.6 °F 93% 29.90 in 10.0 mi South 3.5 mph - N/A   Clear
9:33 AM 39.2 °F 37.0 °F 35.6 °F 87% 29.90 in 10.0 mi South 3.5 mph - N/A   Clear
9:54 AM 41.0 °F 38.0 °F 35.6 °F 81% 29.89 in 10.0 mi South 4.6 mph - N/A   Clear
10:13 AM 44.6 °F 42.2 °F 35.6 °F 71% 29.88 in 10.0 mi SSE 4.6 mph - N/A   Clear
10:33 AM 44.6 °F 42.2 °F 35.6 °F 71% 29.89 in 10.0 mi SSE 4.6 mph - N/A   Clear
10:53 AM 46.4 °F 43.5 °F 37.4 °F 71% 29.89 in 10.0 mi South 5.8 mph - N/A   Clear
11:13 AM 48.2 °F - 35.6 °F 62% 29.87 in 10.0 mi SSE 5.8 mph - N/A   Clear
11:33 AM 50.0 °F - 37.4 °F 62% 29.86 in 10.0 mi SSE 5.8 mph - N/A   Clear
11:53 AM 53.6 °F - 37.4 °F 54% 29.85 in 10.0 mi SSE 6.9 mph - N/A   Clear
12:14 PM 55.4 °F - 37.4 °F 51% 29.84 in 10.0 mi SSE 6.9 mph - N/A   Clear
12:33 PM 57.2 °F - 37.4 °F 48% 29.84 in 10.0 mi SE 4.6 mph - N/A   Clear
12:53 PM 59.0 °F - 35.6 °F 42% 29.83 in 10.0 mi SSE 9.2 mph - N/A   Clear
1:13 PM 59.0 °F - 35.6 °F 42% 29.82 in 10.0 mi SSE 8.1 mph - N/A   Clear
1:34 PM 59.0 °F - 35.6 °F 42% 29.81 in 10.0 mi SE 10.4 mph - N/A   Clear
1:52 PM 59.0 °F - 35.6 °F 42% 29.80 in 10.0 mi SE 12.7 mph - N/A   Clear
2:19 PM 59.0 °F - 35.6 °F 42% 29.79 in 10.0 mi SE 11.5 mph - N/A   Clear
2:34 PM 57.2 °F - 35.6 °F 44% 29.79 in 10.0 mi SE 12.7 mph - N/A   Clear
2:53 PM 57.2 °F - 35.6 °F 44% 29.77 in 10.0 mi SE 11.5 mph - N/A   Clear
3:13 PM 57.2 °F - 37.4 °F 48% 29.76 in 10.0 mi SE 11.5 mph 17.3 mph N/A   Clear
3:30 PM 57.2 °F - 37.4 °F 48% 29.76 in 10.0 mi ESE 13.8 mph - N/A   Clear
3:58 PM 55.4 °F - 39.2 °F 54% 29.75 in 10.0 mi SE 11.5 mph - N/A   Clear
4:11 PM 53.6 °F - 39.2 °F 58% 29.74 in 10.0 mi SE 11.5 mph - N/A   Clear
4:32 PM 53.6 °F - 39.2 °F 58% 29.74 in 10.0 mi SE 10.4 mph - N/A   Clear
4:53 PM 51.8 °F - 37.4 °F 58% 29.74 in 10.0 mi ESE 9.2 mph - N/A   Clear
5:13 PM 48.2 °F - 37.4 °F 66% 29.72 in 10.0 mi ESE 10.4 mph - N/A   Clear
5:34 PM 48.2 °F - 39.2 °F 71% 29.71 in 10.0 mi ESE 10.4 mph - N/A   Clear
5:53 PM 48.2 °F - 39.2 °F 71% 29.70 in 10.0 mi ESE 12.7 mph - N/A   Clear
6:13 PM 48.2 °F - 39.2 °F 71% 29.70 in 10.0 mi ESE 10.4 mph - N/A   Clear
6:33 PM 46.4 °F 42.9 °F 37.4 °F 71% 29.70 in 10.0 mi SE 6.9 mph - N/A   Clear
6:53 PM 46.4 °F 41.9 °F 37.4 °F 71% 29.69 in 10.0 mi SE 9.2 mph - N/A   Clear
7:13 PM 44.6 °F 40.7 °F 37.4 °F 76% 29.68 in 10.0 mi SE 6.9 mph - N/A   Clear
7:34 PM 44.6 °F 40.2 °F 37.4 °F 76% 29.67 in 10.0 mi SE 8.1 mph - N/A   Clear
7:52 PM 46.4 °F 41.9 °F 37.4 °F 71% 29.67 in 10.0 mi SSE 9.2 mph - N/A   Clear
8:13 PM 51.8 °F - 39.2 °F 62% 29.65 in 10.0 mi South 10.4 mph - N/A   Clear
8:32 PM 53.6 °F - 41.0 °F 62% 29.65 in 10.0 mi South 15.0 mph - N/A   Clear
8:53 PM 55.4 °F - 41.0 °F 58% 29.63 in 10.0 mi South 17.3 mph - N/A   Clear
9:13 PM 55.4 °F - 41.0 °F 58% 29.63 in 10.0 mi South 19.6 mph 26.5 mph N/A   Clear
9:30 PM 55.4 °F - 41.0 °F 58% 29.62 in 10.0 mi South 18.4 mph 25.3 mph N/A   Clear
9:51 PM 53.6 °F - 41.0 °F 62% 29.62 in 10.0 mi South 20.7 mph 26.5 mph N/A   Clear
10:11 PM 53.6 °F - 41.0 °F 62% 29.61 in 10.0 mi South 17.3 mph - N/A   Clear
10:33 PM 53.6 °F - 41.0 °F 62% 29.60 in 10.0 mi South 16.1 mph - N/A   Clear
10:54 PM 51.8 °F - 41.0 °F 67% 29.60 in 10.0 mi South 12.7 mph - N/A   Clear
11:13 PM 51.8 °F - 41.0 °F 67% 29.60 in 10.0 mi South 12.7 mph - N/A   Clear
11:32 PM 51.8 °F - 41.0 °F 67% 29.60 in 10.0 mi SW 5.8 mph - N/A   Clear
11:53 PM 51.8 °F - 41.0 °F 67% 29.58 in 10.0 mi SSW 6.9 mph - N/A   Clear